TimeCST,TemperatureF,Dew PointF,Humidity,Sea Level PressureIn,VisibilityMPH,Wind Direction,Wind SpeedMPH,Gust SpeedMPH,PrecipitationIn,Events,Conditions,WindDirDegrees,DateUTC
12:25 AM,60.8,60.8,100,30.09,0.8,Calm,Calm,-,N/A,,Clear,0,2012-11-04 05:25:00
12:44 AM,60.8,60.8,100,30.09,1.0,Calm,Calm,-,N/A,,Clear,0,2012-11-04 05:44:00
12:53 AM,60.1,59.0,96,30.09,0.5,Calm,Calm,-,N/A,Fog,Fog,0,2012-11-04 05:53:00
1:03 AM,62.6,62.6,100,30.09,2.0,SSW,3.5,-,N/A,,Clear,210,2012-11-04 06:03:00
1:10 AM,64.4,62.6,94,30.08,6.0,SW,3.5,-,N/A,,Clear,220,2012-11-04 06:10:00
1:31 AM,60.8,60.8,100,30.08,1.8,Calm,Calm,-,N/A,,Clear,0,2012-11-04 06:31:00
1:42 AM,57.2,55.4,94,30.08,0.2,Calm,Calm,-,N/A,Fog,Fog,0,2012-11-04 06:42:00
1:49 AM,57.2,57.2,100,30.08,0.2,Calm,Calm,-,N/A,Fog,Fog,0,2012-11-04 06:49:00
1:53 AM,59.0,57.0,93,30.08,0.2,Calm,Calm,-,N/A,Fog,Fog,0,2012-11-04 06:53:00
1:16 AM,57.2,57.2,100,30.08,1.0,Calm,Calm,-,N/A,,Mist,0,2012-11-04 07:16:00
1:21 AM,57.2,57.2,100,30.08,0.5,Calm,Calm,-,N/A,Fog,Fog,0,2012-11-04 07:21:00
1:25 AM,57.2,57.2,100,30.08,0.2,Calm,Calm,-,N/A,Fog,Fog,0,2012-11-04 07:25:00
1:53 AM,57.9,57.0,97,30.08,0.2,Calm,Calm,-,N/A,Fog,Fog,0,2012-11-04 07:53:00
2:32 AM,57.2,57.2,100,30.07,0.2,Calm,Calm,-,N/A,Fog,Fog,0,2012-11-04 08:32:00
2:53 AM,57.0,57.0,100,30.08,0.2,Calm,Calm,-,N/A,Fog,Fog,0,2012-11-04 08:53:00
3:53 AM,61.0,60.1,97,30.07,0.2,Calm,Calm,-,N/A,Fog,Fog,0,2012-11-04 09:53:00
4:53 AM,61.0,60.1,97,30.09,0.2,Calm,Calm,-,N/A,Fog,Fog,0,2012-11-04 10:53:00
5:53 AM,59.0,57.9,96,30.10,0.2,Calm,Calm,-,N/A,Fog,Fog,0,2012-11-04 11:53:00
6:07 AM,59.0,57.2,94,30.10,0.5,Calm,Calm,-,N/A,Fog,Fog,0,2012-11-04 12:07:00
6:14 AM,59.0,57.2,94,30.10,0.5,Calm,Calm,-,N/A,Fog,Fog,0,2012-11-04 12:14:00
6:20 AM,60.8,59.0,94,30.11,0.2,Calm,Calm,-,N/A,Fog,Fog,0,2012-11-04 12:20:00
6:53 AM,62.1,61.0,96,30.12,0.2,Calm,Calm,-,N/A,Fog,Fog,0,2012-11-04 12:53:00
7:53 AM,64.9,64.0,97,30.12,0.5,Calm,Calm,-,N/A,Fog,Fog,0,2012-11-04 13:53:00
8:02 AM,64.4,64.4,100,30.13,1.5,North,6.9,-,N/A,,Overcast,350,2012-11-04 14:02:00
8:09 AM,64.4,64.4,100,30.13,3.0,North,8.1,-,N/A,,Overcast,350,2012-11-04 14:09:00
8:39 AM,68.0,64.4,88,30.12,6.0,North,5.8,-,N/A,,Mostly Cloudy,360,2012-11-04 14:39:00
8:53 AM,69.1,64.9,87,30.12,7.0,NNW,4.6,-,N/A,,Mostly Cloudy,340,2012-11-04 14:53:00
9:05 AM,69.8,64.4,83,30.12,9.0,NW,5.8,-,N/A,,Overcast,320,2012-11-04 15:05:00
9:37 AM,71.6,64.4,78,30.12,10.0,Variable,4.6,-,N/A,,Scattered Clouds,0,2012-11-04 15:37:00
9:53 AM,73.9,63.0,68,30.12,10.0,North,6.9,-,N/A,,Partly Cloudy,10,2012-11-04 15:53:00
10:53 AM,78.1,62.1,58,30.10,10.0,North,5.8,-,N/A,,Clear,10,2012-11-04 16:53:00
11:53 AM,77.0,61.0,58,30.08,10.0,NNW,6.9,-,N/A,,Partly Cloudy,330,2012-11-04 17:53:00
12:53 PM,75.0,59.0,57,30.07,10.0,NNW,11.5,18.4,N/A,,Scattered Clouds,340,2012-11-04 18:53:00
1:53 PM,69.1,57.9,68,30.08,10.0,NW,4.6,-,0.00,Rain,Light Rain,310,2012-11-04 19:53:00
2:53 PM,66.0,62.1,87,30.04,10.0,SSW,3.5,-,0.02,,Overcast,210,2012-11-04 20:53:00
3:53 PM,66.9,62.1,84,30.04,10.0,SW,3.5,-,N/A,,Partly Cloudy,220,2012-11-04 21:53:00
4:53 PM,66.0,61.0,84,30.05,10.0,NNW,4.6,-,N/A,,Clear,340,2012-11-04 22:53:00
5:53 PM,64.0,61.0,90,30.05,10.0,North,5.8,-,N/A,,Clear,350,2012-11-04 23:53:00
6:53 PM,64.0,60.1,87,30.06,10.0,NNW,4.6,-,N/A,,Clear,330,2012-11-05 00:53:00
7:53 PM,60.1,57.9,93,30.07,9.0,Calm,Calm,-,N/A,,Clear,0,2012-11-05 01:53:00
8:16 PM,59.0,57.2,94,30.07,1.0,Calm,Calm,-,N/A,,Clear,0,2012-11-05 02:16:00
8:22 PM,59.0,57.2,94,30.07,3.0,Calm,Calm,-,N/A,,Clear,0,2012-11-05 02:22:00
8:30 PM,57.2,57.2,100,30.07,1.5,Calm,Calm,-,N/A,,Clear,0,2012-11-05 02:30:00
8:43 PM,57.2,55.4,94,30.07,0.5,Calm,Calm,-,N/A,Fog,Fog,0,2012-11-05 02:43:00
8:53 PM,57.0,55.9,96,30.08,2.0,Calm,Calm,-,N/A,,Clear,0,2012-11-05 02:53:00
9:00 PM,57.2,57.2,100,30.08,7.0,Calm,Calm,-,N/A,,Clear,0,2012-11-05 03:00:00
9:09 PM,55.4,55.4,100,30.08,1.8,Calm,Calm,-,N/A,,Clear,0,2012-11-05 03:09:00
9:48 PM,55.4,53.6,94,30.08,0.8,Calm,Calm,-,N/A,,Clear,0,2012-11-05 03:48:00
9:53 PM,55.9,54.0,93,30.08,0.8,Calm,Calm,-,N/A,,Clear,0,2012-11-05 03:53:00
10:17 PM,55.4,53.6,94,30.08,2.0,Calm,Calm,-,N/A,,Clear,0,2012-11-05 04:17:00
10:27 PM,55.4,53.6,94,30.07,0.8,Calm,Calm,-,N/A,,Clear,0,2012-11-05 04:27:00
10:32 PM,53.6,53.6,100,30.07,0.2,Calm,Calm,-,N/A,Fog,Fog,0,2012-11-05 04:32:00
10:51 PM,53.6,53.6,100,30.07,0.5,Calm,Calm,-,N/A,Fog,Fog,0,2012-11-05 04:51:00
10:53 PM,53.1,53.1,100,30.08,0.2,Calm,Calm,-,N/A,Fog,Fog,0,2012-11-05 04:53:00